Sigfox identifier Datetime Temperature Humidity SNR
003A5F7A 2019-04-23 15:11:23 16.9 29 25
003A5F7A 2019-04-23 14:40:47 16.7 29 25.2
003A5F7A 2019-04-23 14:10:09 16.6 29 25.4
003A5F7A 2019-04-23 13:39:32 16.5 29 25.5
003A5F7A 2019-04-23 13:08:54 16.4 29 25.8
003A5F7A 2019-04-23 12:38:17 16.3 28 25.9
003A5F7A 2019-04-23 12:07:39 16.3 28 26
003A5F7A 2019-04-23 11:37:02 16.1 28 26
003A5F7A 2019-04-23 11:06:25 16 28 26.1
003A5F7A 2019-04-23 10:35:48 16 28 26.1
003A5F7A 2019-04-23 10:05:10 16 28 26.2
003A5F7A 2019-04-23 09:34:34 16 28 26.1
003A5F7A 2019-04-23 09:03:56 16 28 26.2
003A5F7A 2019-04-23 08:33:19 16 28 26.3
003A5F7A 2019-04-23 08:02:42 16 28 26.3
003A5F7A 2019-04-23 07:32:04 16 28 26.3
003A5F7A 2019-04-23 07:01:27 16 28 26.3
003A5F7A 2019-04-23 06:30:50 15.9 28 26.4
003A5F7A 2019-04-23 06:00:14 15.9 28 26.4
003A5F7A 2019-04-23 05:29:38 15.8 28 26.4
003A5F7A 2019-04-23 04:59:02 15.8 28 26.4
003A5F7A 2019-04-23 04:28:25 15.8 28 26.5
003A5F7A 2019-04-23 03:57:49 15.8 28 26.5
003A5F7A 2019-04-23 03:27:13 15.8 28 26.5
003A5F7A 2019-04-23 02:56:36 15.8 28 26.4
003A5F7A 2019-04-23 02:26:01 15.8 28 26.5
003A5F7A 2019-04-23 01:55:25 15.9 28 26.3
003A5F7A 2019-04-23 01:24:50 15.9 28 26.4
003A5F7A 2019-04-23 00:54:14 16 28 26.4
003A5F7A 2019-04-23 00:23:38 16 28 26.3
003A5F7A 2019-04-22 23:53:01 16 28 26.3
003A5F7A 2019-04-22 23:22:26 16 28 26.4
003A5F7A 2019-04-22 22:51:49 16 28 26.3
003A5F7A 2019-04-22 22:21:12 16 28 26.4
003A5F7A 2019-04-22 21:50:35 16 28 26.4
003A5F7A 2019-04-22 21:19:58 16 28 26.4
003A5F7A 2019-04-22 20:49:20 16.2 28 26.4
003A5F7A 2019-04-22 20:18:43 16.3 28 26.3
003A5F7A 2019-04-22 19:48:05 16.3 28 26.1
003A5F7A 2019-04-22 19:17:28 16.3 28 26.1
003A5F7A 2019-04-22 18:46:52 16.3 28 26.2
003A5F7A 2019-04-22 18:16:14 16.3 28 26.2
003A5F7A 2019-04-22 17:45:38 16.3 28 26.2
003A5F7A 2019-04-22 17:15:02 16.3 28 26.2
003A5F7A 2019-04-22 16:44:26 16.3 28 26.1
003A5F7A 2019-04-22 16:13:49 16.3 28 26.1
003A5F7A 2019-04-22 15:43:13 16.3 28 26.1
003A5F7A 2019-04-22 15:12:36 16.2 28 26.1
003A5F7A 2019-04-22 14:42:00 16.2 28 26
003A5F7A 2019-04-22 14:11:23 16.2 28 26
003A5F7A 2019-04-22 13:40:47 16 28 26
003A5F7A 2019-04-22 13:10:12 16 27 26.1
003A5F7A 2019-04-22 12:39:35 16 27 26
003A5F7A 2019-04-22 12:09:01 16 27 26
003A5F7A 2019-04-22 11:38:23 16 27 26
003A5F7A 2019-04-22 11:07:46 16 27 25.9
003A5F7A 2019-04-22 10:37:09 16 27 25.7
003A5F7A 2019-04-22 10:06:31 16 27 25.7
003A5F7A 2019-04-22 09:35:55 15.9 27 25.7
003A5F7A 2019-04-22 09:05:18 16 27 25.6
003A5F7A 2019-04-22 08:34:41 16 27 25.7
003A5F7A 2019-04-22 08:04:03 16 27 25.8
003A5F7A 2019-04-22 07:33:26 16 27 26
003A5F7A 2019-04-22 07:02:48 16 27 26
003A5F7A 2019-04-22 06:32:10 16 27 26
003A5F7A 2019-04-22 06:01:32 16 27 25.8
003A5F7A 2019-04-22 05:30:55 16 27 25.9
003A5F7A 2019-04-22 05:00:17 15.9 27 25.9
003A5F7A 2019-04-22 04:29:38 16 27 25.9
003A5F7A 2019-04-22 03:59:00 15.9 27 26.1
003A5F7A 2019-04-22 03:28:22 15.9 27 26.3
003A5F7A 2019-04-22 02:57:45 15.9 27 26.3
003A5F7A 2019-04-22 02:27:07 15.8 27 26.3
003A5F7A 2019-04-22 01:56:30 15.8 27 26.6
003A5F7A 2019-04-22 01:25:54 15.9 27 26.6
003A5F7A 2019-04-22 00:55:17 15.8 27 26.7
003A5F7A 2019-04-22 00:24:40 15.8 27 26.6
003A5F7A 2019-04-21 23:54:03 15.8 27 26.6
003A5F7A 2019-04-21 23:23:26 15.8 27 26.4
003A5F7A 2019-04-21 22:52:49 15.8 27 26.6
003A5F7A 2019-04-21 22:22:12 15.8 27 26.6
003A5F7A 2019-04-21 21:51:34 15.8 27 26.7
003A5F7A 2019-04-21 21:20:57 15.8 27 26.7
003A5F7A 2019-04-21 20:50:20 15.8 27 26.5
003A5F7A 2019-04-21 20:19:43 15.8 27 26.5
003A5F7A 2019-04-21 19:49:06 15.8 27 26.5
003A5F7A 2019-04-21 19:18:30 15.8 27 26.5
003A5F7A 2019-04-21 18:47:54 15.8 27 26.5
003A5F7A 2019-04-21 18:17:16 15.8 27 26.6
003A5F7A 2019-04-21 17:46:40 15.8 27 26.6
003A5F7A 2019-04-21 17:16:02 15.8 27 26.6
003A5F7A 2019-04-21 16:45:24 15.7 26 26.7
003A5F7A 2019-04-21 16:14:46 15.7 26 26.6
003A5F7A 2019-04-21 15:44:09 15.6 26 26.6
003A5F7A 2019-04-21 15:13:32 15.6 26 26.6
003A5F7A 2019-04-21 14:42:55 15.6 26 26.4
003A5F7A 2019-04-21 14:12:17 15.6 26 26.4
003A5F7A 2019-04-21 13:41:40 15.6 26 26.3
003A5F7A 2019-04-21 13:11:03 15.6 26 26.1
003A5F7A 2019-04-21 12:40:26 15.6 26 26.1
003A5F7A 2019-04-21 12:09:49 15.6 26 26
003A5F7A 2019-04-21 11:39:13 15.6 26 26.1
003A5F7A 2019-04-21 11:08:35 15.6 26 26.1
003A5F7A 2019-04-21 10:37:58 15.8 26 26.2
003A5F7A 2019-04-21 10:07:19 15.8 26 26.1
003A5F7A 2019-04-21 09:36:42 15.8 26 26
003A5F7A 2019-04-21 09:06:05 15.9 26 26.1
003A5F7A 2019-04-21 08:35:26 16 26 26.3
003A5F7A 2019-04-21 08:04:48 16 26 26.3
003A5F7A 2019-04-21 07:34:10 16 26 26.4
003A5F7A 2019-04-21 07:03:32 16 26 26.5
003A5F7A 2019-04-21 06:32:55 16 26 26.4
003A5F7A 2019-04-21 06:02:17 16 26 26.3
003A5F7A 2019-04-21 05:31:37 16 26 26.2
003A5F7A 2019-04-21 05:01:00 16 26 26.2
003A5F7A 2019-04-21 04:30:21 15.9 26 26.3
003A5F7A 2019-04-21 03:59:43 15.9 26 26.3
003A5F7A 2019-04-21 03:29:05 15.9 26 26.3
003A5F7A 2019-04-21 02:58:28 15.8 26 26.2
003A5F7A 2019-04-21 02:27:51 15.8 26 26.3
003A5F7A 2019-04-21 01:57:13 15.8 26 26.3
003A5F7A 2019-04-21 01:26:37 15.9 26 26.3
003A5F7A 2019-04-21 00:56:00 15.8 26 26.4
003A5F7A 2019-04-21 00:25:23 15.8 26 26.5
003A5F7A 2019-04-20 23:54:47 15.8 26 26.6
003A5F7A 2019-04-20 23:24:11 15.8 26 26.6
003A5F7A 2019-04-20 22:53:34 15.8 26 26.6
003A5F7A 2019-04-20 22:22:56 15.8 26 26.6
003A5F7A 2019-04-20 21:52:20 15.8 26 26.7
003A5F7A 2019-04-20 21:21:43 15.8 26 26.7
003A5F7A 2019-04-20 20:51:07 15.8 26 26.8
003A5F7A 2019-04-20 20:20:32 15.8 25 26.8
003A5F7A 2019-04-20 19:49:56 15.8 25 26.7
003A5F7A 2019-04-20 19:19:20 15.8 25 26.7
003A5F7A 2019-04-20 18:48:44 15.8 25 26.7
003A5F7A 2019-04-20 18:18:07 15.8 25 26.6
003A5F7A 2019-04-20 17:47:32 15.8 25 26.5
003A5F7A 2019-04-20 17:16:55 15.8 25 26.6
003A5F7A 2019-04-20 16:46:18 15.8 25 26.7
003A5F7A 2019-04-20 16:15:42 15.8 25 26.7
003A5F7A 2019-04-20 15:45:06 15.8 25 26.6
003A5F7A 2019-04-20 15:14:29 15.8 25 26.6
003A5F7A 2019-04-20 14:43:54 15.8 25 26.5
003A5F7A 2019-04-20 14:13:17 15.7 25 26.6
003A5F7A 2019-04-20 13:42:42 15.7 25 26.6
003A5F7A 2019-04-20 13:12:06 15.8 25 26.7
003A5F7A 2019-04-20 12:41:31 15.8 25 26.7
003A5F7A 2019-04-20 12:10:55 15.8 25 26.6
003A5F7A 2019-04-20 11:40:21 15.8 25 26.5
003A5F7A 2019-04-20 11:09:43 15.8 25 26.5
003A5F7A 2019-04-20 10:39:06 15.8 25 26.4
003A5F7A 2019-04-20 10:08:31 15.8 25 26.5
003A5F7A 2019-04-20 09:37:55 15.8 25 26.5
003A5F7A 2019-04-20 09:07:18 15.8 25 26.4
003A5F7A 2019-04-20 08:36:40 15.9 25 26.3
003A5F7A 2019-04-20 08:06:03 16 25 26.4
003A5F7A 2019-04-20 07:35:26 16 25 26.5
003A5F7A 2019-04-20 07:04:48 16 25 26.5
003A5F7A 2019-04-20 06:34:11 16 25 26.4
003A5F7A 2019-04-20 06:03:33 16 25 26.4
003A5F7A 2019-04-20 05:32:56 16 25 26.6
003A5F7A 2019-04-20 05:02:19 16 25 26.7
003A5F7A 2019-04-20 04:31:41 15.9 25 26.6
003A5F7A 2019-04-20 04:01:03 16 25 26.7
003A5F7A 2019-04-20 03:30:25 16 25 26.6
003A5F7A 2019-04-20 02:59:50 16 25 26.7
003A5F7A 2019-04-20 02:29:09 16 25 26.6
003A5F7A 2019-04-20 01:58:31 16.1 25 26.7
003A5F7A 2019-04-20 01:27:55 16.1 25 26.7
003A5F7A 2019-04-20 00:57:18 16.3 25 26.6
003A5F7A 2019-04-20 00:26:41 16.3 25 26.5
003A5F7A 2019-04-19 23:56:04 16.3 25 26.5
003A5F7A 2019-04-19 23:25:29 16.3 25 26.5
003A5F7A 2019-04-19 22:54:53 16.3 24 26.6
003A5F7A 2019-04-19 22:24:17 16.3 24 26.7
003A5F7A 2019-04-19 21:53:40 16.3 24 26.7
003A5F7A 2019-04-19 21:23:04 16.4 24 26.7
003A5F7A 2019-04-19 20:52:28 16.5 24 26.7
003A5F7A 2019-04-19 20:21:52 16.5 24 26.8
003A5F7A 2019-04-19 19:51:16 16.5 24 26.8
003A5F7A 2019-04-19 19:20:40 16.5 24 26.7
003A5F7A 2019-04-19 18:50:04 16.5 24 26.6
003A5F7A 2019-04-19 18:19:29 16.5 24 26.6
003A5F7A 2019-04-19 17:48:54 16.5 24 26.6
003A5F7A 2019-04-19 17:18:18 16.5 24 26.6
003A5F7A 2019-04-19 16:47:42 16.5 24 26.6
003A5F7A 2019-04-19 16:17:06 16.5 24 26.5
003A5F7A 2019-04-19 15:46:30 16.5 24 26.5
003A5F7A 2019-04-19 15:15:53 16.3 24 26.4
003A5F7A 2019-04-19 14:45:15 16.3 24 26.5
003A5F7A 2019-04-19 14:14:38 16.3 24 26.4
003A5F7A 2019-04-19 13:44:00 16.3 24 26.4
003A5F7A 2019-04-19 13:13:23 16.3 24 26.4
003A5F7A 2019-04-19 12:42:43 16.3 24 26.5
003A5F7A 2019-04-19 12:12:05 16.3 24 26.5
003A5F7A 2019-04-19 11:41:27 16.1 24 26.5
003A5F7A 2019-04-19 11:10:50 16.1 24 26.5
003A5F7A 2019-04-19 10:40:13 16 24 26.5
003A5F7A 2019-04-19 10:09:35 16 24 26.4
003A5F7A 2019-04-19 09:38:57 16 24 26.4
003A5F7A 2019-04-19 09:08:19 16 24 26.4
003A5F7A 2019-04-19 08:37:41 16 24 26.3
003A5F7A 2019-04-19 08:07:04 16 24 26.3
003A5F7A 2019-04-19 07:36:26 16.1 24 26.3
003A5F7A 2019-04-19 07:05:49 16 24 26.2
003A5F7A 2019-04-19 06:35:12 16.1 24 26.3
003A5F7A 2019-04-19 06:04:35 16.3 24 26.3
003A5F7A 2019-04-19 05:33:58 16.3 23 26.3
003A5F7A 2019-04-19 05:03:20 16.3 23 26.4
003A5F7A 2019-04-19 04:32:42 16.1 23 26.5
003A5F7A 2019-04-19 04:02:04 16.3 23 26.3
003A5F7A 2019-04-19 03:31:26 16.3 23 26.4
003A5F7A 2019-04-19 03:00:49 16.3 23 26.4
003A5F7A 2019-04-19 02:30:13 16.3 23 26.3
003A5F7A 2019-04-19 01:59:35 16.3 23 26.4
003A5F7A 2019-04-19 01:28:58 16.3 23 26.4
003A5F7A 2019-04-19 00:58:21 16.5 23 26.4
003A5F7A 2019-04-19 00:27:43 16.5 23 26.4
003A5F7A 2019-04-18 23:57:05 16.5 23 26.3
003A5F7A 2019-04-18 23:26:28 16.7 23 26.3
003A5F7A 2019-04-18 22:55:51 16.7 23 26.3
003A5F7A 2019-04-18 22:25:13 16.7 23 26.3
003A5F7A 2019-04-18 21:54:35 16.9 23 26.3
003A5F7A 2019-04-18 21:23:57 16.9 23 26.2
003A5F7A 2019-04-18 20:53:22 16.9 23 26.5
003A5F7A 2019-04-18 20:22:46 16.9 23 26.6
003A5F7A 2019-04-18 19:52:09 16.9 23 26.7
003A5F7A 2019-04-18 19:21:32 16.9 23 26.7
003A5F7A 2019-04-18 18:50:55 16.9 23 26.7
003A5F7A 2019-04-18 18:20:18 16.9 23 26.8
003A5F7A 2019-04-18 17:49:40 16.9 23 26.8
003A5F7A 2019-04-18 17:19:03 16.9 23 26.8
003A5F7A 2019-04-18 16:48:26 16.9 23 26.9
003A5F7A 2019-04-18 16:17:49 16.9 23 26.7
003A5F7A 2019-04-18 15:47:12 16.7 23 26.7
003A5F7A 2019-04-18 15:16:35 16.7 23 26.8
003A5F7A 2019-04-18 14:45:58 16.6 23 26.8
003A5F7A 2019-04-18 14:15:21 16.5 23 26.9
003A5F7A 2019-04-18 13:44:44 16.5 23 27
003A5F7A 2019-04-18 13:14:08 16.5 23 27.1
003A5F7A 2019-04-18 12:43:32 16.5 23 27.2
003A5F7A 2019-04-18 12:12:56 16.4 22 27.2
003A5F7A 2019-04-18 11:42:19 16.5 22 27.1
003A5F7A 2019-04-18 11:11:42 16.5 22 27.2
003A5F7A 2019-04-18 10:41:05 16.5 22 27.3
003A5F7A 2019-04-18 10:10:27 16.3 22 27.5
003A5F7A 2019-04-18 09:39:50 16.3 22 27.5
003A5F7A 2019-04-18 09:09:12 16.3 22 27.4
003A5F7A 2019-04-18 08:38:35 16.3 22 27.5
003A5F7A 2019-04-18 08:07:57 16.5 22 27.4
003A5F7A 2019-04-18 07:37:20 16.5 22 27.3
003A5F7A 2019-04-18 07:06:42 16.4 22 27.3
003A5F7A 2019-04-18 06:36:05 16.3 22 27.4
003A5F7A 2019-04-18 06:05:28 16.3 22 27.5
003A5F7A 2019-04-18 05:34:50 16.3 22 27.6
003A5F7A 2019-04-18 05:04:12 16.3 22 27.5
003A5F7A 2019-04-18 04:33:34 16.3 22 27.5
003A5F7A 2019-04-18 04:02:56 16.3 22 27.3
003A5F7A 2019-04-18 03:32:17 16.3 22 27.3
003A5F7A 2019-04-18 03:01:40 16.3 22 27.2
003A5F7A 2019-04-18 02:31:02 16.3 22 27
003A5F7A 2019-04-18 02:00:25 16.5 22 26.9
003A5F7A 2019-04-18 01:29:47 16.5 22 26.7
003A5F7A 2019-04-18 00:59:08 16.6 22 26.6
003A5F7A 2019-04-18 00:28:32 16.7 22 26.4
003A5F7A 2019-04-17 23:57:55 16.8 22 26.4
003A5F7A 2019-04-17 23:27:18 16.9 22 26.3
003A5F7A 2019-04-17 22:56:40 16.9 22 26.1
003A5F7A 2019-04-17 22:26:02 16.9 22 25.9
003A5F7A 2019-04-17 21:55:24 16.9 22 25.7
003A5F7A 2019-04-17 21:24:47 16.9 22 25.7
003A5F7A 2019-04-17 20:54:10 16.7 22 25.5
003A5F7A 2019-04-17 20:23:33 16.7 21 25.4
003A5F7A 2019-04-17 19:52:56 16.7 21 25.3
003A5F7A 2019-04-17 19:22:20 16.7 21 25.1
003A5F7A 2019-04-17 18:51:42 16.7 21 24.9
003A5F7A 2019-04-17 18:21:05 16.7 21 24.7
003A5F7A 2019-04-17 17:50:27 16.7 21 24.4
003A5F7A 2019-04-17 17:19:51 16.7 21 24.1
003A5F7A 2019-04-17 16:49:15 16.7 21 23.9
003A5F7A 2019-04-17 16:18:38 16.7 21 23.7
003A5F7A 2019-04-17 15:48:02 16.7 21 23.6
003A5F7A 2019-04-17 15:17:24 16.7 21 24.2
003A5F7A 2019-04-17 14:46:47 16.7 21 24.2
003A5F7A 2019-04-17 14:16:09 16.9 21 24.1
003A5F7A 2019-04-17 13:14:53 17.1 21 24.3
003A5F7A 2019-04-17 12:44:16 17 21 24.3
003A5F7A 2019-04-17 12:13:38 17 21 24.3
003A5F7A 2019-04-17 11:43:00 16.9 21 24.3
003A5F7A 2019-04-17 11:12:23 16.9 21 24.2
003A5F7A 2019-04-17 10:41:44 16.9 21 23.9
003A5F7A 2019-04-17 10:11:06 16.8 21 23.8
003A5F7A 2019-04-17 09:40:29 16.9 21 23.8
003A5F7A 2019-04-17 09:09:52 16.9 21 23.7
003A5F7A 2019-04-17 08:39:14 16.9 20 23.6
003A5F7A 2019-04-17 08:08:37 17.1 20 22.8
003A5F7A 2019-04-17 07:37:59 17.2 20 22.7
003A5F7A 2019-04-17 07:07:21 17.3 21 22.5
003A5F7A 2019-04-17 06:36:43 17.5 21 22.5
003A5F7A 2019-04-17 06:06:05 17.5 21 22.5
003A5F7A 2019-04-17 05:35:28 17.5 20 22.7
003A5F7A 2019-04-17 05:04:50 17.6 20 22.8
003A5F7A 2019-04-17 04:34:12 17.8 20 22.9
003A5F7A 2019-04-17 04:03:33 17.8 20 22.9
003A5F7A 2019-04-17 03:32:55 17.8 20 22.6
003A5F7A 2019-04-17 03:02:16 17.9 20 22.4
003A5F7A 2019-04-17 02:31:37 18 20 22.3
003A5F7A 2019-04-17 02:00:59 18 20 21.1
003A5F7A 2019-04-17 01:30:21 18 20 21.1
003A5F7A 2019-04-17 00:59:43 18 20 21
003A5F7A 2019-04-17 00:29:05 17.9 20 20.6
003A5F7A 2019-04-16 23:58:26 17.9 20 20.3
003A5F7A 2019-04-16 23:27:48 17.8 20 20.1
003A5F7A 2019-04-16 22:57:09 17.8 20 20.2
003A5F7A 2019-04-16 22:26:30 18.2 20 20.1
003A5F7A 2019-04-16 21:55:51 18.4 20 20.1
003A5F7A 2019-04-16 21:25:11 18.6 20 20.1
003A5F7A 2019-04-16 20:54:32 18.8 20 20.3
003A5F7A 2019-04-16 20:23:52 18.9 20 20.7
003A5F7A 2019-04-16 19:53:13 19 20 21.2
003A5F7A 2019-04-16 19:22:33 19 20 21.3
003A5F7A 2019-04-16 18:51:53 19 20 21.5
003A5F7A 2019-04-16 18:21:15 19 20 21.6
003A5F7A 2019-04-16 17:50:34 19.2 20 21.6
003A5F7A 2019-04-16 16:49:15 19.5 20 21.4
003A5F7A 2019-04-16 16:18:35 19.7 20 21.2
003A5F7A 2019-04-16 15:47:55 19.9 20 21.1
003A5F7A 2019-04-16 15:17:15 20.1 20 20.9
003A5F7A 2019-04-16 14:46:36 20.5 19 21.1
003A5F7A 2019-04-16 14:15:56 21.2 20 21.5
003A5F7A 2019-04-16 13:45:16 21.4 20 21.7
003A5F7A 2019-04-16 13:14:37 21.4 20 21.8
003A5F7A 2019-04-16 12:43:58 21.3 20 21.9
003A5F7A 2019-04-16 12:13:14 21.3 20 22
003A5F7A 2019-04-16 11:42:34 21.3 20 22.1
003A5F7A 2019-04-16 11:11:53 21.2 20 22.2
003A5F7A 2019-04-16 10:41:12 21.2 20 22.4
003A5F7A 2019-04-16 10:10:30 21.2 20 22.5
003A5F7A 2019-04-16 09:39:49 21.2 20 22.6
003A5F7A 2019-04-16 09:09:07 21.2 20 22.7
003A5F7A 2019-04-16 08:38:26 21.2 20 23
003A5F7A 2019-04-16 08:07:45 21.2 20 23.1
003A5F7A 2019-04-16 07:37:04 21.2 20 23.1
003A5F7A 2019-04-16 07:06:25 21.2 20 23.1
003A5F7A 2019-04-16 06:35:43 21.2 20 22.9
003A5F7A 2019-04-16 06:05:02 21.2 20 22.8
003A5F7A 2019-04-16 05:34:22 21.2 20 23
003A5F7A 2019-04-16 05:03:42 21.2 20 22.9
003A5F7A 2019-04-16 04:33:03 21.3 20 22.8
003A5F7A 2019-04-16 04:02:21 21.2 20 23
003A5F7A 2019-04-16 03:31:42 21.3 20 22.9
003A5F7A 2019-04-16 03:01:01 21.3 20 22.6
003A5F7A 2019-04-16 02:30:24 21.4 20 22.6
003A5F7A 2019-04-16 01:59:43 21.3 19 22.4
003A5F7A 2019-04-16 01:29:03 21.4 19 22.1
003A5F7A 2019-04-16 00:58:22 21.4 19 21.9
003A5F7A 2019-04-16 00:27:41 21.4 19 22
003A5F7A 2019-04-15 23:57:00 21.4 19 22.3
003A5F7A 2019-04-15 23:26:20 21.4 19 22.6
003A5F7A 2019-04-15 22:55:41 21.4 19 23
003A5F7A 2019-04-15 22:25:01 21.4 19 23.4
003A5F7A 2019-04-15 21:54:21 21.4 19 23.8
003A5F7A 2019-04-15 21:23:40 21.4 19 24.3
003A5F7A 2019-04-15 20:53:01 21.4 19 24.4
003A5F7A 2019-04-15 20:22:22 21.4 19 24.8
003A5F7A 2019-04-15 19:51:42 21.4 19 24.8
003A5F7A 2019-04-15 19:21:02 21.4 19 25.1
003A5F7A 2019-04-15 18:50:23 21.4 19 25.6
003A5F7A 2019-04-15 18:19:43 21.4 19 25.7
003A5F7A 2019-04-15 17:49:04 21.5 19 25.7
003A5F7A 2019-04-15 17:18:26 21.6 19 25.9
003A5F7A 2019-04-15 16:47:48 21.6 19 26.1
003A5F7A 2019-04-15 16:17:06 21.7 19 26.3
003A5F7A 2019-04-15 15:46:26 21.8 19 26.4
003A5F7A 2019-04-15 15:15:46 21.8 19 26.6
003A5F7A 2019-04-15 14:45:07 21.8 19 26.9
003A5F7A 2019-04-15 14:14:28 22 18 27.1
003A5F7A 2019-04-15 13:43:50 22.1 18 27.3
003A5F7A 2019-04-15 13:13:09 22.2 18 27.4
003A5F7A 2019-04-15 12:42:29 22.5 18 27.5
003A5F7A 2019-04-15 12:11:49 22.7 18 27.7
003A5F7A 2019-04-15 11:41:10 22.5 15 27.8
003A5F7A 2019-04-15 11:10:30 22.5 16 27.8
003A5F7A 2019-04-15 10:39:50 22.5 16 27.8
003A5F7A 2019-04-15 10:09:09 22.5 16 27.8
003A5F7A 2019-04-15 09:38:29 22.4 17 27.8
003A5F7A 2019-04-15 09:07:48 22.2 16 27.7
003A5F7A 2019-04-15 08:37:09 22.2 16 27.6
003A5F7A 2019-04-15 08:06:28 22.2 16 27.8
003A5F7A 2019-04-15 07:35:48 22 16 27.7
003A5F7A 2019-04-15 07:05:07 22 16 27.8
003A5F7A 2019-04-15 06:34:26 22 16 27.8
003A5F7A 2019-04-15 06:03:45 22 17 27.6
003A5F7A 2019-04-15 05:33:03 22 17 27.6
003A5F7A 2019-04-15 05:02:22 21.9 17 27.8
003A5F7A 2019-04-15 04:31:41 22 17 27.8
003A5F7A 2019-04-15 04:01:00 22 17 27.6
003A5F7A 2019-04-15 03:30:19 22 17 27.6
003A5F7A 2019-04-15 02:59:38 22 17 27.6
003A5F7A 2019-04-15 02:28:56 22 17 27.4
003A5F7A 2019-04-15 01:58:15 22 17 27.2
003A5F7A 2019-04-15 01:27:33 22 17 27.1
003A5F7A 2019-04-15 00:56:52 22 17 26.9
003A5F7A 2019-04-15 00:26:11 22 17 27.1
003A5F7A 2019-04-14 23:55:32 22 17 27
003A5F7A 2019-04-14 23:24:51 22 17 26.9
003A5F7A 2019-04-14 22:54:09 22 17 26.9
003A5F7A 2019-04-14 22:23:28 22 17 27
003A5F7A 2019-04-14 21:52:46 22 18 27.2
003A5F7A 2019-04-14 21:22:06 22 18 27.3
003A5F7A 2019-04-14 20:51:25 22.2 18 27.3
003A5F7A 2019-04-14 20:20:43 22.2 18 27.6
003A5F7A 2019-04-14 19:50:02 22.2 18 27.5
003A5F7A 2019-04-14 19:19:20 22.2 18 27.4
003A5F7A 2019-04-14 18:48:37 22.2 17 27.4
003A5F7A 2019-04-14 18:17:56 22.2 17 27.4
003A5F7A 2019-04-14 17:47:17 22.2 17 27.4
003A5F7A 2019-04-14 17:16:36 22 17 27.4
003A5F7A 2019-04-14 16:45:56 22 17 27.4
003A5F7A 2019-04-14 16:15:15 22 17 27.3
003A5F7A 2019-04-14 15:44:36 22 17 27.3
003A5F7A 2019-04-14 15:13:54 22 18 27.4
003A5F7A 2019-04-14 14:43:14 22 18 27.4
003A5F7A 2019-04-14 14:12:33 22 18 27.5
003A5F7A 2019-04-14 13:41:52 22 18 27.7
003A5F7A 2019-04-14 13:11:11 22.1 18 27.8
003A5F7A 2019-04-14 12:40:31 22.1 18 27.9
003A5F7A 2019-04-14 12:09:50 22.1 18 28
003A5F7A 2019-04-14 11:39:10 22 18 27.8
003A5F7A 2019-04-14 11:08:29 22.1 18 27.9
003A5F7A 2019-04-14 10:37:47 22 18 27.9
003A5F7A 2019-04-14 10:07:05 22 18 28
003A5F7A 2019-04-14 09:36:24 22 18 27.9
003A5F7A 2019-04-14 09:05:43 22 18 27.9
003A5F7A 2019-04-14 08:35:02 22 18 27.7
003A5F7A 2019-04-14 08:04:22 22 18 27.6
003A5F7A 2019-04-14 07:33:39 22 17 27.5
003A5F7A 2019-04-14 07:02:58 22 17 27.6
003A5F7A 2019-04-14 06:32:17 22 17 27.6
003A5F7A 2019-04-14 06:01:38 22 17 27.8
003A5F7A 2019-04-14 05:30:57 22 17 27.6
003A5F7A 2019-04-14 05:00:16 22 17 27.6
003A5F7A 2019-04-14 04:29:35 22 17 27.6
003A5F7A 2019-04-14 03:58:55 22 17 27.6
003A5F7A 2019-04-14 03:28:15 22 17 27.5
003A5F7A 2019-04-14 02:57:36 22 17 27.6
003A5F7A 2019-04-14 02:26:56 22 17 27.5
003A5F7A 2019-04-14 01:56:15 22.1 17 27.5
003A5F7A 2019-04-14 01:25:36 22 17 27.4
003A5F7A 2019-04-14 00:54:56 22.2 17 27.2
003A5F7A 2019-04-14 00:24:15 22.1 17 27.1
003A5F7A 2019-04-13 23:53:34 22.1 17 27.1
003A5F7A 2019-04-13 23:22:54 22.2 17 27.2
003A5F7A 2019-04-13 22:52:13 22.2 17 27.2
003A5F7A 2019-04-13 22:21:32 22.2 17 27.4
003A5F7A 2019-04-13 21:50:51 22.2 17 27.4
003A5F7A 2019-04-13 21:20:11 22.2 17 27.4
003A5F7A 2019-04-13 20:49:30 22.2 17 27.5
003A5F7A 2019-04-13 20:18:50 22.2 17 27.5
003A5F7A 2019-04-13 19:48:09 22.2 17 27.5
003A5F7A 2019-04-13 19:17:28 22.2 17 27.6
003A5F7A 2019-04-13 18:46:46 22.2 17 27.6
003A5F7A 2019-04-13 18:16:04 22.3 17 27.6
003A5F7A 2019-04-13 17:45:22 22.4 17 27.4
003A5F7A 2019-04-13 17:14:40 22.5 17 27.4
003A5F7A 2019-04-13 16:43:57 22.5 17 27.6
003A5F7A 2019-04-13 16:13:16 22.5 17 27.6
003A5F7A 2019-04-13 15:42:34 22.5 17 27.7
003A5F7A 2019-04-13 15:11:53 22.5 17 27.7
003A5F7A 2019-04-13 14:41:11 22.5 17 27.7
003A5F7A 2019-04-13 14:10:28 22.5 17 27.7
003A5F7A 2019-04-13 13:39:46 22.5 17 27.8
003A5F7A 2019-04-13 13:09:03 22.5 17 27.9
003A5F7A 2019-04-13 12:38:20 22.5 17 28.1
003A5F7A 2019-04-13 12:07:38 22.5 17 28.1
003A5F7A 2019-04-13 11:36:55 22.5 17 28.2
003A5F7A 2019-04-13 11:06:12 22.5 17 28
003A5F7A 2019-04-13 10:35:30 22.5 17 28.1
003A5F7A 2019-04-13 10:04:48 22.5 17 28.1
003A5F7A 2019-04-13 09:34:05 22.5 17 27.9
003A5F7A 2019-04-13 09:03:21 22.5 17 27.9
003A5F7A 2019-04-13 08:32:40 22.5 17 27.8
003A5F7A 2019-04-13 08:01:58 22.5 17 27.6
003A5F7A 2019-04-13 07:31:16 22.5 17 27.6
003A5F7A 2019-04-13 07:00:34 22.5 17 27.6
003A5F7A 2019-04-13 06:29:51 22.5 17 27.5
003A5F7A 2019-04-13 05:59:08 22.5 17 27.6
003A5F7A 2019-04-13 05:28:26 22.5 17 27.5
003A5F7A 2019-04-13 04:57:42 22.5 17 27.5
003A5F7A 2019-04-13 04:27:01 22.5 17 27.5
003A5F7A 2019-04-13 03:56:19 22.5 17 27.4
003A5F7A 2019-04-13 03:25:37 22.5 17 27.3
003A5F7A 2019-04-13 02:54:54 22.6 17 27.3
003A5F7A 2019-04-13 02:24:13 22.6 17 27.5
003A5F7A 2019-04-13 01:53:30 22.6 17 27.5
003A5F7A 2019-04-13 01:22:49 22.7 17 27.3
003A5F7A 2019-04-13 00:52:07 22.7 17 27.3
003A5F7A 2019-04-13 00:21:26 22.7 17 27.2
003A5F7A 2019-04-12 23:50:44 22.7 17 27
003A5F7A 2019-04-12 23:20:02 22.7 17 27.1
003A5F7A 2019-04-12 22:49:21 22.7 18 27
003A5F7A 2019-04-12 22:18:39 22.9 18 27.1
003A5F7A 2019-04-12 21:47:57 22.9 18 27
003A5F7A 2019-04-12 21:17:15 22.9 18 27
003A5F7A 2019-04-12 20:46:34 22.9 18 27.1
003A5F7A 2019-04-12 20:15:52 22.9 17 27.1
003A5F7A 2019-04-12 19:45:11 22.9 17 27.2
003A5F7A 2019-04-12 19:14:31 23 17 27.2
003A5F7A 2019-04-12 18:43:51 23.1 16 27.2
003A5F7A 2019-04-12 18:13:10 23.1 16 27.3
003A5F7A 2019-04-12 17:42:28 23.3 16 27.4
003A5F7A 2019-04-12 17:11:47 23.3 16 26.9
003A5F7A 2019-04-12 16:41:05 23.3 17 27.1
003A5F7A 2019-04-12 16:10:24 23.3 17 27.4
003A5F7A 2019-04-12 15:39:42 23.3 17 27.1
003A5F7A 2019-04-12 15:09:00 23.2 18 26.8
003A5F7A 2019-04-12 14:38:18 23.1 18 27.6
003A5F7A 2019-04-12 14:07:37 22.9 18 26.4
003A5F7A 2019-04-12 13:36:55 22.4 20 21.7
003A5F7A 2019-04-12 13:06:14 21.4 24 9.4